Location: Newark
(45.9456°N, 15.4064°E)
Time: 14:55:20
(UTC+00:00)

SR - Pass Details

Date: 04 February 2020
Orbit: 575 x 880 km, 66.7° (Epoch: 26 February)

Event Time Altitude Azimuth Distance (km) Brightness Sun altitude
Rises 19:08:21 0° 220° (SW) 3,427 ? -31.6°
Reaches altitude 10° 19:10:49 10° 223° (SW) 2,513 ? -32.1°
Enters shadow 19:15:24 53° 250° (WSW) 1,075 ? -32.8°
Maximum altitude 19:16:40 68° 306° (NW) 950 - -33.1°
Drops below altitude 10° 19:22:34 10° 29° (NNE) 2,524 - -34.1°
Sets 19:25:03 0° 32° (NNE) 3,443 - -34.5°
